Location: Bassano
(45.7667°N, 11.7333°E)
Time: 04:06:36
(UTC+00:00)

Cosmos 2208 Rocket - Pass Details

Date: 07 June 2020
Orbit: 753 x 807 km, 74.0° (Epoch: 07 July)

Event Time Altitude Azimuth Distance (km) Brightness Sun altitude
Exits shadow 00:23:38 36° 220° (SW) 1,209 4.5 -19.5°
Maximum altitude 00:25:45 69° 293° (WNW) 835 4.1 -19.4°
Drops below altitude 10° 00:31:07 10° 17° (NNE) 2,363 7.8 -19.1°
Sets 00:33:34 0° 20° (NNE) 3,304 9.0 -19.0°
